Location: Maiden
(35.5760°N, 81.2120°W)
Time: 02:03:40
(UTC-04:00)

MOS 1 Rocket - Pass Details

Date: 02 August 2020
Orbit: 616 x 829 km, 97.4° (Epoch: 11 August)

Event Time Altitude Azimuth Distance (km) Brightness Sun altitude
Rises 20:52:41 0° 10° (N) 3,361 7.0 -5.5°
Reaches altitude 10° 20:55:02 10° 10° (N) 2,434 6.3 -6.0°
Maximum altitude 21:00:29 84° 283° (WNW) 837 3.8 -6.9°
Drops below altitude 10° 21:05:52 10° 196° (SSW) 2,402 5.9 -7.9°
Sets 21:08:11 0° 195° (SSW) 3,314 6.7 -8.3°
